SHT310 EGPF-EGFF

Flight info

Callsign SHT310
Flight time N/A
Altitude 33000
Route NORBO T256 RIPNO DCT ADZOP DCT EGTOC DCT NOKIN N862 KARNO DCT ALHUP DCT LUCSA N862 WEVBE
Aircraft A20N/M-SDE2E3FGHIRWXY/LB1

Departure

Time 2026-05-04 06:33
Airport Glasgow Airport (EGPF)

Arrival

Time N/A
Airport Cardiff International Airport (EGFF)
Time Latitude Longitude Altitude Speed Heading
2026-05-04 06:13 55.86638 -4.43309 19 ft 0 kts 253°
2026-05-04 06:25 55.86616 -4.43207 19 ft 2 kts 330°
2026-05-04 06:25 55.86602 -4.43197 19 ft 2 kts 348°
2026-05-04 06:26 55.86594 -4.43194 19 ft 0 kts 348°
2026-05-04 06:27 55.86639 -4.43217 19 ft 12 kts 344°
2026-05-04 06:28 55.86720 -4.43259 19 ft 13 kts 345°
2026-05-04 06:28 55.86802 -4.43255 19 ft 13 kts 52°
2026-05-04 06:28 55.86835 -4.43100 19 ft 14 kts 73°
2026-05-04 06:28 55.86880 -4.42953 19 ft 14 kts 32°
2026-05-04 06:29 55.86969 -4.42872 19 ft 15 kts 26°
2026-05-04 06:29 55.87067 -4.42801 19 ft 15 kts 20°
2026-05-04 06:29 55.87168 -4.42737 19 ft 16 kts 22°
2026-05-04 06:29 55.87271 -4.42663 19 ft 16 kts 21°
2026-05-04 06:30 55.87378 -4.42588 19 ft 17 kts 30°
2026-05-04 06:30 55.87464 -4.42448 18 ft 17 kts 47°
2026-05-04 06:30 55.87549 -4.42289 16 ft 19 kts 46°
2026-05-04 06:30 55.87644 -4.42153 11 ft 17 kts 12°
2026-05-04 06:31 55.87746 -4.42226 7 ft 16 kts 294°
2026-05-04 06:31 55.87734 -4.42317 8 ft 0 kts 230°
2026-05-04 06:31 55.87707 -4.42369 9 ft 21 kts 227°
2026-05-04 06:32 55.87432 -4.42886 19 ft 93 kts 226°
2026-05-04 06:33 55.81578 -4.53414 3093 ft 220 kts 228°
2026-05-04 06:34 55.80442 -4.55425 3510 ft 240 kts 228°
2026-05-04 06:34 55.79227 -4.57570 4036 ft 256 kts 228°
2026-05-04 06:34 55.77952 -4.59813 4782 ft 264 kts 228°
2026-05-04 06:34 55.76650 -4.62099 5476 ft 267 kts 228°
2026-05-04 06:35 55.75327 -4.64422 5873 ft 268 kts 228°
2026-05-04 06:36 55.65101 -4.77219 5983 ft 279 kts 173°
2026-05-04 06:37 55.63191 -4.76682 5984 ft 279 kts 174°
2026-05-04 06:37 55.61270 -4.76356 5984 ft 278 kts 178°
2026-05-04 06:37 55.59383 -4.75691 5979 ft 282 kts 158°
2026-05-04 06:37 55.57721 -4.73812 6217 ft 291 kts 141°
2026-05-04 06:38 55.56183 -4.71512 7165 ft 292 kts 140°
2026-05-04 06:38 55.54657 -4.69226 8121 ft 292 kts 140°
2026-05-04 06:40 55.42650 -4.51953 12755 ft 353 kts 140°
2026-05-04 06:40 55.40756 -4.49263 13488 ft 357 kts 140°
2026-05-04 06:40 55.38828 -4.46529 14194 ft 361 kts 140°
2026-05-04 06:40 55.36875 -4.43764 14901 ft 365 kts 140°
2026-05-04 06:41 55.34901 -4.40974 15603 ft 368 kts 140°
2026-05-04 06:41 55.32914 -4.38167 16284 ft 372 kts 140°
2026-05-04 06:41 55.30904 -4.35331 16939 ft 375 kts 140°
2026-05-04 06:41 55.28871 -4.32465 17577 ft 379 kts 140°
2026-05-04 06:42 55.26815 -4.29570 18197 ft 383 kts 140°
2026-05-04 06:42 55.24744 -4.26656 18832 ft 386 kts 140°
2026-05-04 06:42 55.22652 -4.23723 19442 ft 389 kts 140°
2026-05-04 06:44 55.08720 -4.00249 23379 ft 410 kts 130°
2026-05-04 06:44 55.06749 -3.96620 23873 ft 414 kts 130°
2026-05-04 06:44 55.04766 -3.92979 24382 ft 417 kts 130°
2026-05-04 06:45 55.02790 -3.89356 24879 ft 420 kts 130°
2026-05-04 06:45 55.00780 -3.85684 25348 ft 423 kts 130°
2026-05-04 06:45 54.98756 -3.81988 25829 ft 425 kts 130°
2026-05-04 06:45 54.96715 -3.78279 26288 ft 428 kts 131°
2026-05-04 06:46 54.94434 -3.74880 26734 ft 435 kts 141°
2026-05-04 06:46 54.91839 -3.72185 27138 ft 441 kts 152°
2026-05-04 06:46 54.89017 -3.70167 27515 ft 446 kts 157°
2026-05-04 06:46 54.86112 -3.68329 27867 ft 450 kts 158°
2026-05-04 06:48 54.76447 -3.62268 28951 ft 461 kts 156°